Regional Weather Roundup
Issued by NWS State College, PA

Home | Current Version | Previous Version | Graphics & Text | Print | Product List | Glossary On
Versions: 1 2 3 4 5 6 7 8 9 10 11 12 13 14 15 16 17 18 19 20 21 22 23 24 25 26 27 28 29 30 31 32 33 34 35 36 37 38 39 40 41 42 43 44 45 46 47 48 49 50
000
ASUS41 KCTP 290610
RWRCTP

REGIONAL WEATHER ROUNDUP
NATIONAL WEATHER SERVICE STATE COLLEGE PA
100 AM EST THU JAN 29 2015

Note: "fair" indicates few or no clouds below 12,000 feet with no
significant weather and/or obstructions to visibility.

* = STATION THAT DOES NOT REPORT PRECIPITATION /E.G. RAIN...SNOW...ETC/
    THUNDER OR FOG.

PAZ002>004-007>009-013>016-020>023-029>032-290700-
WESTERN PENNSYLVANIA

CITY           SKY/WX    TMP DP  RH WIND       PRES   REMARKS
ERIE           MOCLDY    22   5  48 S14       30.20F WCI   9
MEADVILLE      MOCLDY    19   6  57 VRB6      30.17F WCI  11
FRANKLIN*      MOCLDY    16   3  57 S5        30.21F WCI   9
NEW CASTLE     FAIR      19  10  68 CALM      30.23F
BEAVER COUNTY  NOT AVBL
BUTLER*        MOCLDY    18   9  68 SE5       30.24F WCI  11
PITTSBURGH INT CLOUDY    16  11  80 SE6       30.21F WCI   7
PITTSBURGH     PTCLDY    16   9  74 SE3       30.22F HAZE
INDIANA*       CLEAR      7   5  92 CALM      30.28F
LATROBE        PTCLDY     9   7  92 CALM      30.26F
WASHINGTON CO* MOCLDY    12   9  85 CALM      30.23F
$$

PAZ004>006-010>012-017>019-024>028-033>037-041-042-045-046-049>053-290700-
CENTRAL PENNSYLVANIA

CITY           SKY/WX    TMP DP  RH WIND       PRES   REMARKS
BRADFORD       PTCLDY     3  -3  76 CALM      30.18S
DUBOIS         MOCLDY     9   3  77 SE3       30.20S
CLEARFIELD     MOCLDY     5   0  79 NW5       30.25S WCI  -4
JOHNSTOWN      PTCLDY    13   5  70 S6        30.17F WCI   4
ALTOONA        PTCLDY     5   1  83 SW5       30.25F WCI  -4
STATE COLLEGE  MOCLDY    12   4  71 W3        30.26F
WILLIAMSPORT   PTCLDY     9   3  77 CALM      30.32S
SELINSGROVE    PTCLDY     3  -3  76 CALM      30.33R
FT INDIANTOWN  PTCLDY    15   1  55 CALM      30.30F
CAPITAL CITY   PTCLDY     2  32 100 W5        30.32S WCI  -8
HARRISBURG     PTCLDY    15   6  67 CALM      30.32S
YORK           PTCLDY     6   0  76 CALM      30.31S
$$

PAZ038>040-043-044-047-048-054-055-060>062-067>071-290700-
EASTERN PENNSYLVANIA

CITY           SKY/WX    TMP DP  RH WIND       PRES   REMARKS
SCRANTON       CLEAR     13   4  67 E6        30.27F WCI   4
MOUNT POCONO   CLEAR     12   3  67 N13       30.17F WCI  -3
ALLENTOWN      PTCLDY    20   2  45 W5        30.30S WCI  13
QUAKERTOWN*    PTCLDY    16   1  53 CALM      30.28F
READING        CLEAR     14   2  58 S6        30.30F WCI   5
LANCASTER      PTCLDY    12   2  64 NW8       30.30S WCI   0
COATESVILLE    CLEAR     23   5  46 NW6       30.27F
POTTSTOWN      PTCLDY    18   1  47 NW3       30.30F
BLUE BELL      CLEAR     23   5  46 CALM      30.29S
DOYLESTOWN     CLEAR     19   3  49 NW3       30.28S
WILLOW GROVE   NOT AVBL
NORTH PHILA    CLEAR     25   1  35 NW8       30.31S
PHILADELPHIA   CLEAR     26   3  37 N7        30.31S
$$


USA.gov is the U.S. government's official web portal to all federal, state and local government web resources and services.